Weather History for KIFA - October, 2013

Change the Weather History Date:

Friday, October 18, 2013

  Actual Average Record
Temperature  
Mean Temperature 43 °F -  
Max Temperature 51 °F 57 °F 88 °F (1953)
Min Temperature 35 °F 36 °F 20 °F (1952)
Degree Days  
Heating Degree Days 22    
Moisture  
Dew Point 31 °F    
Average Humidity 65    
Maximum Humidity 89    
Minimum Humidity 36    
Precipitation  
Precipitation 0.00 in - - ()
Sea Level Pressure  
Sea Level Pressure 29.98 in    
Wind  
Wind Speed 12 mph (WNW)    
Max Wind Speed 17 mph    
Max Gust Speed 23 mph    
Visibility 10 miles    
Events      
Averages and records for this station are not official NWS values.
T = Trace of Precipitation, MM = Missing Value Source: NWS Daily Summary

Daily Weather History Graph

Daily Weather History Graph

Search for Another Location

Airport or City:

Trip Planner

Search our weather history database for the weather conditions in past years. The results will help you decide how hot, cold, wet, or windy it might be!

Date:

Astronomy

Oct. 18, 2013 Rise Set
Actual Time 7:29 AM CDT 6:25 PM CDT
Civil Twilight 7:01 AM CDT 6:54 PM CDT
Nautical Twilight 6:28 AM CDT 7:26 PM CDT
Astronomical Twilight 5:56 AM CDT 7:59 PM CDT
Moon 6:15 PM CDT (10/18) 7:06 AM CDT (10/18)
Length of Visible Light 11h 52m
Length of Day
10h 55m
Full, 100% of the Moon is Illuminated
Oct 18
Full
Oct 18
Full
Oct 26
Last Quarter
Nov 3
New
Nov 9
First Quarter

Hourly Weather History & Observations

Time (CDT) Temp. Windchill Dew Point Humidity Pressure Visibility Wind Dir Wind Speed Gust Speed Precip Events Conditions
12:15 AM 42.1 °F 33.9 °F 37.0 °F 82% 29.93 in 10.0 mi WNW 17.3 mph - N/A   Overcast
12:35 AM 42.1 °F 34.5 °F 36.5 °F 81% 29.93 in 10.0 mi WNW 15.0 mph 23.0 mph N/A   Overcast
12:55 AM 42.1 °F 33.9 °F 36.5 °F 81% 29.94 in 10.0 mi WNW 17.3 mph 21.9 mph N/A   Overcast
1:15 AM 42.1 °F 34.9 °F 36.5 °F 81% 29.94 in 10.0 mi WNW 13.8 mph 19.6 mph N/A   Overcast
1:35 AM 42.1 °F 34.2 °F 36.1 °F 79% 29.93 in 10.0 mi WNW 16.1 mph - N/A   Overcast
1:55 AM 42.1 °F 34.9 °F 36.5 °F 81% 29.93 in 10.0 mi WNW 13.8 mph 21.9 mph N/A   Overcast
2:15 AM 41.9 °F 35.0 °F 36.5 °F 81% 29.93 in 10.0 mi WNW 12.7 mph 18.4 mph N/A   Overcast
2:35 AM 42.3 °F 36.3 °F 36.3 °F 79% 29.94 in 10.0 mi WNW 10.4 mph - N/A   Overcast
2:55 AM 42.3 °F 36.8 °F 36.1 °F 79% 29.94 in 10.0 mi WNW 9.2 mph - N/A   Overcast
3:15 AM 42.3 °F 35.1 °F 36.0 °F 78% 29.94 in 10.0 mi West 13.8 mph 23.0 mph N/A   Overcast
3:35 AM 42.3 °F 35.9 °F 36.1 °F 79% 29.94 in 10.0 mi WNW 11.5 mph 17.3 mph N/A   Overcast
3:55 AM 42.1 °F 36.6 °F 36.0 °F 79% 29.94 in 10.0 mi WNW 9.2 mph - N/A   Overcast
4:15 AM 41.7 °F 34.1 °F 35.6 °F 79% 29.94 in 10.0 mi West 15.0 mph 19.6 mph N/A   Overcast
4:35 AM 41.0 °F 33.5 °F 34.9 °F 79% 29.95 in 10.0 mi WNW 13.8 mph 18.4 mph N/A   Overcast
4:55 AM 40.5 °F 32.8 °F 34.7 °F 80% 29.95 in 10.0 mi WNW 13.8 mph 21.9 mph N/A   Overcast
5:15 AM 40.1 °F 33.2 °F 34.5 °F 80% 29.95 in 10.0 mi WNW 11.5 mph 16.1 mph N/A   Overcast
5:35 AM 38.3 °F 31.4 °F 33.8 °F 84% 29.95 in 10.0 mi WNW 10.4 mph - N/A   Mostly Cloudy
5:55 AM 37.4 °F 30.3 °F 33.8 °F 87% 29.96 in 10.0 mi WNW 10.4 mph - N/A   Mostly Cloudy
6:15 AM 36.5 °F 29.7 °F 33.3 °F 88% 29.96 in 10.0 mi WNW 9.2 mph - N/A   Scattered Clouds
6:35 AM 36.5 °F 29.7 °F 33.3 °F 88% 29.97 in 10.0 mi WNW 9.2 mph - N/A   Mostly Cloudy
6:55 AM 36.1 °F 29.9 °F 33.1 °F 89% 29.97 in 10.0 mi West 8.1 mph - N/A   Scattered Clouds
7:15 AM 36.3 °F 29.5 °F 33.3 °F 89% 29.99 in 10.0 mi West 9.2 mph - N/A   Clear
7:35 AM 35.8 °F 30.1 °F 32.9 °F 89% 29.99 in 10.0 mi West 6.9 mph - N/A   Clear
7:55 AM 36.0 °F 30.3 °F 32.9 °F 89% 30.00 in 10.0 mi West 6.9 mph - N/A   Scattered Clouds
8:15 AM 38.3 °F 32.5 °F 34.3 °F 86% 30.01 in 10.0 mi WNW 8.1 mph - N/A   Mostly Cloudy
8:35 AM 39.6 °F 32.1 °F 34.2 °F 81% 30.01 in 10.0 mi WNW 12.7 mph 17.3 mph N/A   Scattered Clouds
8:55 AM 40.1 °F 33.2 °F 34.2 °F 79% 30.01 in 10.0 mi NW 11.5 mph 17.3 mph N/A   Mostly Cloudy
9:15 AM 41.5 °F 34.6 °F 34.7 °F 77% 30.02 in 10.0 mi NW 12.7 mph - N/A   Scattered Clouds
9:35 AM 42.4 °F 35.7 °F 34.7 °F 74% 30.02 in 10.0 mi NW 12.7 mph 18.4 mph N/A   Clear
9:55 AM 42.8 °F 37.0 °F 34.3 °F 72% 30.03 in 10.0 mi WNW 10.4 mph - N/A   Clear
10:15 AM 45.0 °F 39.7 °F 34.3 °F 66% 30.02 in 10.0 mi NW 10.4 mph - N/A   Clear
10:30 AM 44.6 °F 38.4 °F 33.8 °F 66% 30.04 in 10.0 mi WNW 12.7 mph - N/A   Clear
10:35 AM 45.5 °F 40.3 °F 34.2 °F 65% 30.04 in 10.0 mi WNW 10.4 mph - N/A   Clear
10:50 AM 46.4 °F 41.9 °F 33.8 °F 62% 30.04 in 10.0 mi WNW 9.2 mph - N/A   Clear
10:55 AM 46.6 °F - 33.6 °F 61% 30.04 in 10.0 mi WNW 11.5 mph 16.1 mph N/A   Clear
11:11 AM 46.4 °F 40.7 °F 33.8 °F 62% 30.04 in 10.0 mi NW 12.7 mph - N/A   Scattered Clouds
11:15 AM 46.6 °F - 33.3 °F 60% 30.04 in 10.0 mi NW 13.8 mph 19.6 mph N/A   Scattered Clouds
11:35 AM 48.2 °F - 32.4 °F 54% 30.04 in 10.0 mi NNW 12.7 mph 18.4 mph N/A   Scattered Clouds
11:55 AM 49.8 °F - 32.5 °F 51% 30.03 in 10.0 mi WNW 12.7 mph 16.1 mph N/A   Scattered Clouds
12:10 PM 48.2 °F - 30.2 °F 50% 30.04 in 10.0 mi WNW 12.7 mph 19.6 mph N/A   Scattered Clouds
12:15 PM 49.1 °F - 31.1 °F 50% 30.04 in 10.0 mi WNW 12.7 mph 19.6 mph N/A   Mostly Cloudy
12:35 PM 48.7 °F - 30.0 °F 48% 30.03 in 10.0 mi NW 9.2 mph 18.4 mph N/A   Mostly Cloudy
12:55 PM 49.8 °F - 28.9 °F 45% 30.02 in 10.0 mi NW 11.5 mph 18.4 mph N/A   Mostly Cloudy
1:10 PM 50.0 °F - 28.4 °F 43% 30.01 in 10.0 mi NNW 10.4 mph - N/A   Scattered Clouds
1:15 PM 50.0 °F - 28.4 °F 43% 30.01 in 10.0 mi NW 11.5 mph - N/A   Scattered Clouds
1:31 PM 51.8 °F - 26.6 °F 38% 30.01 in 10.0 mi West 11.5 mph 16.1 mph N/A   Scattered Clouds
1:35 PM 51.1 °F - 27.0 °F 39% 30.01 in 10.0 mi West 10.4 mph - N/A   Scattered Clouds
1:44 PM 51.8 °F - 26.6 °F 38% 30.00 in 10.0 mi NW 9.2 mph 17.3 mph N/A   Scattered Clouds
1:55 PM 51.3 °F - 26.8 °F 39% 30.00 in 10.0 mi WNW 10.4 mph - N/A   Scattered Clouds
2:15 PM 50.9 °F - 25.0 °F 36% 30.00 in 10.0 mi WNW 9.2 mph 18.4 mph N/A   Clear
2:35 PM 51.1 °F - 26.1 °F 38% 29.99 in 10.0 mi West 11.5 mph - N/A   Clear
2:55 PM 50.4 °F - 26.4 °F 39% 29.99 in 10.0 mi WNW 8.1 mph 17.3 mph N/A   Clear
3:15 PM 50.0 °F - 26.8 °F 41% 29.99 in 10.0 mi WNW 10.4 mph 17.3 mph N/A   Scattered Clouds
3:35 PM 50.2 °F - 26.1 °F 39% 29.98 in 10.0 mi NW 8.1 mph 17.3 mph N/A   Clear
3:55 PM 50.0 °F - 25.9 °F 39% 29.98 in 10.0 mi WNW 10.4 mph - N/A   Clear
4:15 PM 50.4 °F - 25.5 °F 38% 29.98 in 10.0 mi WNW 8.1 mph - N/A   Scattered Clouds
4:35 PM 51.1 °F - 25.9 °F 38% 29.97 in 10.0 mi NW 9.2 mph - N/A   Scattered Clouds
4:55 PM 49.3 °F - 25.9 °F 40% 29.97 in 10.0 mi West 9.2 mph - N/A   Scattered Clouds
5:15 PM 49.1 °F - 25.7 °F 40% 29.97 in 10.0 mi WNW 9.2 mph - N/A   Mostly Cloudy
5:35 PM 48.7 °F - 26.2 °F 42% 29.98 in 10.0 mi West 6.9 mph - N/A   Scattered Clouds
5:55 PM 47.8 °F - 27.1 °F 45% 29.98 in 10.0 mi West 5.8 mph - N/A   Clear
6:15 PM 46.6 °F - 28.2 °F 49% 29.97 in 10.0 mi West 3.5 mph - N/A   Clear
6:35 PM 44.8 °F 43.3 °F 29.8 °F 56% 29.97 in 10.0 mi WSW 3.5 mph - N/A   Clear
6:55 PM 42.6 °F 39.9 °F 30.9 °F 63% 29.97 in 10.0 mi WSW 4.6 mph - N/A   Clear
7:15 PM 42.1 °F 40.2 °F 30.2 °F 63% 29.97 in 10.0 mi SW 3.5 mph - N/A   Clear
7:35 PM 41.2 °F 37.3 °F 30.4 °F 65% 29.97 in 10.0 mi SW 5.8 mph - N/A   Clear
7:55 PM 40.5 °F 36.5 °F 30.2 °F 67% 29.97 in 10.0 mi SW 5.8 mph - N/A   Clear
8:15 PM 39.6 °F 35.4 °F 30.2 °F 69% 29.97 in 10.0 mi SW 5.8 mph - N/A   Clear
8:35 PM 39.2 °F 34.2 °F 30.2 °F 70% 29.97 in 10.0 mi SW 6.9 mph - N/A   Scattered Clouds
8:55 PM 39.2 °F 35.9 °F 30.0 °F 70% 29.96 in 10.0 mi SW 4.6 mph - N/A   Clear
9:15 PM 38.3 °F 33.9 °F 29.8 °F 72% 29.96 in 10.0 mi SW 5.8 mph - N/A   Scattered Clouds
9:35 PM 37.4 °F 32.1 °F 29.7 °F 74% 29.96 in 10.0 mi SW 6.9 mph - N/A   Scattered Clouds
9:55 PM 37.8 °F 33.3 °F 30.0 °F 74% 29.96 in 10.0 mi SW 5.8 mph - N/A   Mostly Cloudy
10:15 PM 36.9 °F 31.4 °F 29.7 °F 75% 29.95 in 10.0 mi SW 6.9 mph - N/A   Mostly Cloudy
10:35 PM 36.5 °F 30.3 °F 29.5 °F 76% 29.95 in 10.0 mi SW 8.1 mph - N/A   Scattered Clouds
10:55 PM 36.5 °F 31.0 °F 29.3 °F 75% 29.95 in 10.0 mi SW 6.9 mph - N/A   Clear
11:15 PM 36.0 °F 29.6 °F 29.3 °F 77% 29.94 in 10.0 mi SW 8.1 mph - N/A   Clear
11:35 PM 36.5 °F 30.3 °F 29.3 °F 75% 29.94 in 10.0 mi SW 8.1 mph - N/A   Clear
11:55 PM 37.8 °F 31.3 °F 29.8 °F 73% 29.94 in 10.0 mi SW 9.2 mph - N/A   Scattered Clouds